Location: Acheville
(50.3840°N, 2.8827°E)
Time: 18:01:14
(UTC+00:00)

H-2A R/B - Pass Details

Date: 24 October 2021
Orbit: 577 x 653 km, 98.5° (Epoch: 06 December)

Event Time Altitude Azimuth Distance (km) Brightness Sun altitude
Rises 18:44:01 0° 17° (NNE) 2,814 5.3 -20.6°
Enters shadow 18:44:41 - 18° (NNE) 2,539 5.1 -20.7°
Exits shadow 18:51:08 51° 157° (SSE) 749 2.2 -21.7°
Drops below altitude 10° 18:54:27 10° 186° (S) 1,931 4.6 -22.2°
Sets 18:56:39 0° 189° (S) 2,840 5.5 -22.6°
